Location: Coopersdale
(40.3556°N, 78.9372°W)
Time: 21:59:30
(UTC+00:00)

Transit 4A - All Passes

Search period start: 21 January 2021 00:00
Search period end: 31 January 2021 00:00
Orbit: 864 x 980 km, 66.8° (Epoch: 20 January)

Date Brightness Start Highest point End Pass type
(mag) Time Alt. Az. Time Alt. Az. Time Alt. Az.
21 Jan - 01:44:57 10° SW 01:51:01 44° NW 01:57:05 10° NNE visible
21 Jan - 03:37:41 10° NW 03:39:10 11° NNW 03:40:38 10° NNW visible
21 Jan - 09:02:16 10° NNW 09:07:54 35° NE 09:13:21 10° ESE visible
21 Jan - 10:48:37 10° NW 10:54:18 40° WSW 10:59:48 10° S visible
22 Jan - 00:07:49 10° S 00:13:56 50° ESE 00:20:06 10° NE visible
22 Jan - 01:54:55 10° WSW 02:00:32 32° NW 02:06:11 10° NNE visible
22 Jan - 07:27:22 10° NNE 07:29:24 12° NNE 07:31:25 10° NE visible
22 Jan - 09:11:24 10° NNW 09:17:23 50° NE 09:23:11 10° SE visible
22 Jan - 10:58:24 10° NW 11:03:23 27° WSW 11:08:15 10° SSW visible
22 Jan - 22:36:41 10° ESE 22:37:54 11° E 22:39:05 10° E daylight
23 Jan - 00:16:48 10° SSW 00:23:11 74° ESE 00:29:34 10° NNE visible
23 Jan - 02:05:12 10° W 02:10:11 23° NW 02:15:11 10° N visible
23 Jan - 07:35:42 10° N 07:39:16 15° NE 07:42:46 10° ENE visible
23 Jan - 09:20:37 10° NNW 09:26:49 72° ENE 09:32:45 10° SE visible
23 Jan - 11:08:37 10° WNW 11:12:25 17° WSW 11:16:08 10° SW visible
23 Jan - 22:42:53 10° SE 22:46:51 17° ESE 22:50:50 10° ENE visible
24 Jan - 00:26:05 10° SSW 00:32:30 78° WNW 00:38:55 10° NNE visible
24 Jan - 02:15:49 10° W 02:19:55 17° NW 02:24:01 10° N visible
24 Jan - 07:44:27 10° N 07:49:01 21° NE 07:53:29 10° E visible
24 Jan - 09:29:56 10° NNW 09:36:07 79° WSW 09:42:03 10° SSE visible
24 Jan - 11:20:28 10° W 11:21:22 10° W 11:22:15 10° WSW visible
24 Jan - 22:50:44 10° SSE 22:55:53 26° ESE 23:01:04 10° NE visible
25 Jan - 00:35:37 10° SW 00:41:53 55° NW 00:48:09 10° NNE visible
25 Jan - 02:26:55 10° WNW 02:29:45 13° NW 02:32:33 10° N visible
25 Jan - 07:53:24 10° N 07:58:41 28° NE 08:03:48 10° ESE visible
25 Jan - 09:39:24 10° NW 09:45:20 53° WSW 09:51:05 10° S visible
25 Jan - 22:59:08 10° S 23:05:00 39° ESE 23:10:52 10° NE visible
26 Jan - 00:45:25 10° WSW 00:51:22 39° NW 00:57:18 10° NNE visible
26 Jan - 08:02:28 10° NNW 08:08:14 39° NE 08:13:49 10° ESE visible
26 Jan - 09:49:02 10° NW 09:54:30 35° WSW 09:59:47 10° S visible
26 Jan - 23:07:57 10° S 23:14:11 58° ESE 23:20:27 10° NE visible
27 Jan - 00:55:30 10° WSW 01:00:57 28° NW 01:06:21 10° N visible
27 Jan - 06:27:13 10° N 06:29:53 13° NE 06:32:31 10° ENE night (unlit)
27 Jan - 08:11:38 10° NNW 08:17:43 57° ENE 08:23:33 10° SE night (unlit)
27 Jan - 09:58:57 10° NW 10:03:34 23° WSW 10:08:04 10° SSW visible
27 Jan - 21:35:23 10° SE 21:38:02 13° E 21:40:41 10° ENE daylight
27 Jan - 23:17:02 10° SSW 23:23:27 84° ESE 23:29:52 10° NNE visible
28 Jan - 01:05:54 10° W 01:10:36 21° NW 01:15:18 10° N visible
28 Jan - 06:35:45 10° N 06:39:42 17° NE 06:43:34 10° E night (unlit)
28 Jan - 08:20:54 10° NNW 08:27:05 82° ENE 08:33:02 10° SSE night (unlit)
28 Jan - 10:09:26 10° WNW 10:12:33 15° WSW 10:15:38 10° SW night (unlit)
28 Jan - 21:42:32 10° SSE 21:47:01 20° ESE 21:51:31 10° ENE daylight
28 Jan - 23:26:25 10° SW 23:32:48 69° WNW 23:39:11 10° NNE visible
29 Jan - 01:16:40 10° WNW 01:20:22 16° NW 01:24:03 10° N visible
29 Jan - 06:44:36 10° N 06:49:25 23° NE 06:54:07 10° E night (unlit)
29 Jan - 08:30:16 10° NW 08:36:22 68° WSW 08:42:14 10° SSE night (unlit)
29 Jan - 21:50:38 10° SSE 21:56:05 30° ESE 22:01:33 10° NE daylight
29 Jan - 23:36:03 10° SW 23:42:13 48° NW 23:48:22 10° NNE visible
30 Jan - 01:28:05 10° NW 01:30:14 12° NNW 01:32:22 10° NNW visible
30 Jan - 06:53:36 10° NNW 06:59:03 32° NE 07:04:20 10° ESE night (unlit)
30 Jan - 08:39:47 10° NW 08:45:34 45° WSW 08:51:09 10° S night (unlit)
30 Jan - 21:59:11 10° S 22:05:14 45° ESE 22:11:15 10° NE daylight
30 Jan - 23:45:57 10° WSW 23:51:44 34° NW 23:57:29 10° NNE visible
